TAM455 SBSV-SBFZ

Flight info

Callsign TAM455
Flight time 1h 25m
Altitude 35000
Route FROTI UZ77 ILRIB DCT DOTKU
Aircraft A21N/M-SDE3FGHIRWY/LB1

Departure

Time 2026-05-01 12:17
Airport Deputado Luiz Eduardo Magalhães International Airport (SBSV)

Arrival

Time 2026-05-01 13:43
Airport Pinto Martins International Airport (SBFZ)
Time Latitude Longitude Altitude Speed Heading
2026-05-01 12:02 -12.91358 -38.33356 42 ft 0 kts 170°
2026-05-01 12:08 -12.91353 -38.33357 42 ft 2 kts 170°
2026-05-01 12:08 -12.91338 -38.33359 42 ft 2 kts 170°
2026-05-01 12:09 -12.91329 -38.33361 41 ft 2 kts 163°
2026-05-01 12:09 -12.91316 -38.33369 41 ft 2 kts 128°
2026-05-01 12:09 -12.91310 -38.33383 42 ft 2 kts 99°
2026-05-01 12:09 -12.91309 -38.33393 42 ft 0 kts 80°
2026-05-01 12:10 -12.91311 -38.33401 42 ft 0 kts 77°
2026-05-01 12:13 -12.91309 -38.33394 42 ft 2 kts 77°
2026-05-01 12:13 -12.91303 -38.33367 41 ft 5 kts 77°
2026-05-01 12:13 -12.91292 -38.33329 41 ft 5 kts 56°
2026-05-01 12:13 -12.91252 -38.33316 41 ft 6 kts 349°
2026-05-01 12:14 -12.91216 -38.33346 41 ft 7 kts 303°
2026-05-01 12:14 -12.91207 -38.33360 41 ft 0 kts 300°
2026-05-01 12:14 -12.91207 -38.33361 41 ft 0 kts 300°
2026-05-01 12:15 -12.91202 -38.33370 41 ft 3 kts 299°
2026-05-01 12:15 -12.91185 -38.33402 41 ft 7 kts 298°
2026-05-01 12:15 -12.91154 -38.33445 41 ft 7 kts 326°
2026-05-01 12:15 -12.91104 -38.33441 41 ft 8 kts 45°
2026-05-01 12:16 -12.91090 -38.33402 41 ft 0 kts 81°
2026-05-01 12:16 -12.91088 -38.33389 41 ft 16 kts 80°
2026-05-01 12:16 -12.91007 -38.32976 40 ft 98 kts 77°
2026-05-01 12:17 -12.90823 -38.32069 49 ft 161 kts 79°
2026-05-01 12:17 -12.90566 -38.30803 329 ft 190 kts 79°
2026-05-01 12:17 -12.90316 -38.29515 1236 ft 185 kts 80°
2026-05-01 12:17 -12.90072 -38.28266 2063 ft 180 kts 77°
2026-05-01 12:18 -12.89424 -38.27111 2414 ft 198 kts 40°
2026-05-01 12:18 -12.88082 -38.26632 2728 ft 218 kts
2026-05-01 12:18 -12.86519 -38.26805 3072 ft 236 kts 354°
2026-05-01 12:18 -12.84781 -38.27060 3394 ft 256 kts 354°
2026-05-01 12:19 -12.82949 -38.27310 3819 ft 272 kts 354°
2026-05-01 12:19 -12.81051 -38.27555 4456 ft 278 kts 355°
2026-05-01 12:19 -12.79129 -38.27785 5164 ft 280 kts 355°
2026-05-01 12:19 -12.77164 -38.28016 5670 ft 283 kts 356°
2026-05-01 12:20 -12.75188 -38.28234 5935 ft 285 kts 355°
2026-05-01 12:20 -12.73205 -38.28460 5978 ft 285 kts 355°
2026-05-01 12:20 -12.71219 -38.28685 5979 ft 284 kts 358°
2026-05-01 12:20 -12.69221 -38.28819 6111 ft 290 kts 359°
2026-05-01 12:21 -12.67199 -38.28925 6754 ft 293 kts 358°
2026-05-01 12:21 -12.65184 -38.29045 7518 ft 290 kts 358°
2026-05-01 12:21 -12.63153 -38.29169 8105 ft 293 kts 358°
2026-05-01 12:21 -12.61088 -38.29293 8653 ft 297 kts 358°
2026-05-01 12:22 -12.58998 -38.29419 9173 ft 300 kts 359°
2026-05-01 12:22 -12.56914 -38.29539 9672 ft 303 kts 359°
2026-05-01 12:22 -12.54787 -38.29662 10179 ft 306 kts 359°
2026-05-01 12:22 -12.52625 -38.29787 10521 ft 315 kts 359°
2026-05-01 12:23 -12.50391 -38.29916 10764 ft 329 kts 359°
2026-05-01 12:23 -12.48040 -38.30053 11005 ft 342 kts 358°
2026-05-01 12:23 -12.45609 -38.30196 11240 ft 356 kts 358°
2026-05-01 12:23 -12.43095 -38.30344 11465 ft 368 kts 358°
2026-05-01 12:24 -12.40452 -38.30500 11698 ft 380 kts 358°
2026-05-01 12:24 -12.37814 -38.30655 12083 ft 385 kts 359°
2026-05-01 12:24 -12.35090 -38.30782 12580 ft 387 kts 359°
2026-05-01 12:24 -12.32395 -38.30888 13057 ft 389 kts 360°
2026-05-01 12:25 -12.29681 -38.30992 13497 ft 392 kts 360°
2026-05-01 12:25 -12.24170 -38.31203 14344 ft 397 kts 360°
2026-05-01 12:25 -12.21390 -38.31309 14756 ft 400 kts 360°
2026-05-01 12:26 -12.18563 -38.31419 15162 ft 403 kts
2026-05-01 12:26 -12.12924 -38.31638 15948 ft 408 kts
2026-05-01 12:26 -12.10070 -38.31747 16334 ft 411 kts
2026-05-01 12:27 -12.07179 -38.31857 16718 ft 414 kts
2026-05-01 12:27 -12.01403 -38.32080 17456 ft 419 kts
2026-05-01 12:28 -11.95494 -38.32308 18197 ft 424 kts
2026-05-01 12:28 -11.92531 -38.32423 18556 ft 427 kts
2026-05-01 12:28 -11.86500 -38.32656 19237 ft 431 kts
2026-05-01 12:29 -11.83471 -38.32772 19571 ft 433 kts
2026-05-01 12:29 -11.80463 -38.32887 19907 ft 435 kts
2026-05-01 12:29 -11.74368 -38.33124 20566 ft 439 kts
2026-05-01 12:30 -11.68218 -38.33363 21210 ft 442 kts
2026-05-01 12:30 -11.65119 -38.33483 21524 ft 444 kts
2026-05-01 12:30 -11.62020 -38.33603 21830 ft 446 kts
2026-05-01 12:31 -11.58896 -38.33724 22132 ft 447 kts
2026-05-01 12:31 -11.55745 -38.33846 22430 ft 449 kts
2026-05-01 12:31 -11.52633 -38.33966 22717 ft 451 kts
2026-05-01 12:31 -11.49483 -38.34089 22999 ft 452 kts
2026-05-01 12:32 -11.46298 -38.34212 23277 ft 454 kts
2026-05-01 12:32 -11.39950 -38.34457 23827 ft 457 kts
2026-05-01 12:32 -11.36734 -38.34580 24099 ft 459 kts
2026-05-01 12:33 -11.33520 -38.34703 24364 ft 461 kts
2026-05-01 12:33 -11.30283 -38.34827 24628 ft 463 kts
2026-05-01 12:33 -11.27055 -38.34952 24882 ft 464 kts
2026-05-01 12:33 -11.23824 -38.35077 25123 ft 466 kts
2026-05-01 12:34 -11.20581 -38.35202 25356 ft 468 kts
2026-05-01 12:34 -11.17265 -38.35330 25584 ft 469 kts
2026-05-01 12:34 -11.13987 -38.35455 25806 ft 471 kts
2026-05-01 12:34 -11.10709 -38.35578 26036 ft 473 kts
2026-05-01 12:35 -11.07427 -38.35703 26318 ft 472 kts 360°
2026-05-01 12:35 -11.04111 -38.35831 26622 ft 471 kts 360°
2026-05-01 12:35 -11.00855 -38.35956 26910 ft 470 kts 360°
2026-05-01 12:35 -10.97546 -38.36084 27193 ft 470 kts 359°
2026-05-01 12:36 -10.94299 -38.36209 27462 ft 470 kts 359°
2026-05-01 12:36 -10.91013 -38.36335 27734 ft 470 kts 359°
2026-05-01 12:36 -10.87671 -38.36464 28027 ft 470 kts 359°
2026-05-01 12:36 -10.84425 -38.36589 28318 ft 469 kts 359°
2026-05-01 12:37 -10.81122 -38.36717 28612 ft 469 kts 359°
2026-05-01 12:37 -10.77862 -38.36842 28906 ft 469 kts 359°
2026-05-01 12:37 -10.74583 -38.36969 29207 ft 468 kts 359°
2026-05-01 12:37 -10.71325 -38.37094 29508 ft 467 kts 359°
2026-05-01 12:38 -10.68078 -38.37219 29801 ft 467 kts 359°
2026-05-01 12:38 -10.64823 -38.37345 30104 ft 467 kts 359°
2026-05-01 12:38 -10.61552 -38.37471 30416 ft 466 kts 358°
2026-05-01 12:38 -10.58285 -38.37597 30737 ft 465 kts 358°
2026-05-01 12:39 -10.55070 -38.37720 31056 ft 464 kts 358°
2026-05-01 12:39 -10.51844 -38.37844 31370 ft 463 kts 358°
2026-05-01 12:39 -10.48626 -38.37969 31682 ft 462 kts 358°
2026-05-01 12:39 -10.45380 -38.38094 32001 ft 461 kts 358°
2026-05-01 12:40 -10.42158 -38.38217 32329 ft 460 kts 358°
2026-05-01 12:40 -10.38945 -38.38342 32663 ft 458 kts 358°
2026-05-01 12:40 -10.35764 -38.38464 32991 ft 457 kts 358°
2026-05-01 12:40 -10.32586 -38.38587 33314 ft 455 kts 357°
2026-05-01 12:41 -10.29446 -38.38797 33595 ft 454 kts 354°
2026-05-01 12:41 -10.26258 -38.39189 33847 ft 454 kts 351°
2026-05-01 12:41 -10.23170 -38.39749 34064 ft 454 kts 347°
2026-05-01 12:41 -10.20035 -38.40427 34269 ft 455 kts 347°
2026-05-01 12:42 -10.16944 -38.41108 34459 ft 455 kts 347°
2026-05-01 12:42 -10.13848 -38.41791 34643 ft 456 kts 346°
2026-05-01 12:42 -10.10699 -38.42484 34810 ft 456 kts 346°
2026-05-01 12:42 -10.07583 -38.43167 34955 ft 457 kts 346°
2026-05-01 12:43 -10.04463 -38.43852 35088 ft 458 kts 346°
2026-05-01 12:43 -10.01349 -38.44533 35120 ft 458 kts 346°
2026-05-01 12:43 -9.95075 -38.45904 35122 ft 458 kts 346°
2026-05-01 12:44 -9.88780 -38.47280 35120 ft 458 kts 346°
2026-05-01 12:45 -9.76169 -38.49487 35070 ft 459 kts 352°
2026-05-01 12:45 -9.69806 -38.50155 35075 ft 459 kts 353°
2026-05-01 12:46 -9.63407 -38.50824 35078 ft 459 kts 352°
2026-05-01 12:46 -9.57029 -38.51494 35082 ft 459 kts 352°
2026-05-01 12:47 -9.50666 -38.52163 35084 ft 459 kts 352°
2026-05-01 12:47 -9.44293 -38.52834 35084 ft 459 kts 352°
2026-05-01 12:48 -9.37892 -38.53507 35085 ft 459 kts 352°
2026-05-01 12:48 -9.31517 -38.54177 35086 ft 459 kts 352°
2026-05-01 12:49 -9.25095 -38.54852 35088 ft 459 kts 352°
2026-05-01 12:49 -9.18738 -38.55521 35089 ft 459 kts 353°
2026-05-01 12:50 -9.12354 -38.56192 35087 ft 459 kts 353°
2026-05-01 12:50 -9.05938 -38.56866 35085 ft 459 kts 353°
2026-05-01 12:51 -8.99578 -38.57532 35083 ft 459 kts 352°
2026-05-01 12:52 -8.90008 -38.58537 35087 ft 459 kts 352°
2026-05-01 12:52 -8.80403 -38.59545 35094 ft 459 kts 352°
2026-05-01 12:53 -8.70825 -38.60549 35099 ft 459 kts 352°
2026-05-01 12:54 -8.64430 -38.61219 35100 ft 459 kts 353°
2026-05-01 12:54 -8.54822 -38.62221 35101 ft 459 kts 353°
2026-05-01 12:55 -8.45233 -38.63224 35104 ft 459 kts 353°
2026-05-01 12:56 -8.38860 -38.63891 35110 ft 458 kts 352°
2026-05-01 12:56 -8.32496 -38.64557 35118 ft 458 kts 352°
2026-05-01 12:57 -8.26086 -38.65228 35128 ft 458 kts 353°
2026-05-01 12:57 -8.16567 -38.66224 35129 ft 458 kts 353°
2026-05-01 12:58 -8.10166 -38.66893 35115 ft 458 kts 353°
2026-05-01 12:59 -8.00624 -38.67889 35095 ft 458 kts 353°
2026-05-01 12:59 -7.91074 -38.68887 35098 ft 458 kts 353°
2026-05-01 13:00 -7.81507 -38.69885 35112 ft 457 kts 353°
2026-05-01 13:01 -7.71975 -38.70879 35125 ft 457 kts 353°
2026-05-01 13:02 -7.62448 -38.71872 35123 ft 457 kts 353°
2026-05-01 13:07 -6.96427 -38.78742 35093 ft 439 kts 353°
2026-05-01 13:07 -6.93367 -38.79059 35089 ft 439 kts 353°
2026-05-01 13:08 -6.87253 -38.79694 35079 ft 439 kts 353°
2026-05-01 13:08 -6.81132 -38.80329 35068 ft 439 kts 353°
2026-05-01 13:09 -6.75004 -38.80965 35058 ft 439 kts 353°
2026-05-01 13:09 -6.68914 -38.81599 35052 ft 439 kts 353°
2026-05-01 13:10 -6.62837 -38.82231 35049 ft 439 kts 353°
2026-05-01 13:10 -6.56733 -38.82864 35048 ft 439 kts 353°
2026-05-01 13:11 -6.50617 -38.83498 35046 ft 438 kts 353°
2026-05-01 13:11 -6.44541 -38.84127 35043 ft 438 kts 353°
2026-05-01 13:12 -6.38416 -38.84763 35038 ft 438 kts 353°
2026-05-01 13:12 -6.32342 -38.85393 35033 ft 438 kts 353°
2026-05-01 13:13 -6.26227 -38.86026 35027 ft 438 kts 353°
2026-05-01 13:13 -6.20161 -38.86654 35025 ft 438 kts 353°
2026-05-01 13:14 -6.14057 -38.87286 35026 ft 438 kts 353°
2026-05-01 13:14 -6.07954 -38.87918 35028 ft 438 kts 353°
2026-05-01 13:15 -6.01864 -38.88549 35031 ft 438 kts 353°
2026-05-01 13:15 -5.95783 -38.89178 35033 ft 438 kts 353°
2026-05-01 13:16 -5.89684 -38.89811 35029 ft 438 kts 353°
2026-05-01 13:16 -5.83591 -38.90442 35023 ft 438 kts 354°
2026-05-01 13:17 -5.74545 -38.91376 35019 ft 426 kts 354°
2026-05-01 13:17 -5.71584 -38.91682 35020 ft 425 kts 354°
2026-05-01 13:18 -5.62719 -38.92599 35016 ft 425 kts 354°
2026-05-01 13:18 -5.59759 -38.92905 34807 ft 427 kts 354°
2026-05-01 13:18 -5.56777 -38.93214 34593 ft 424 kts 354°
2026-05-01 13:19 -5.53859 -38.93516 34353 ft 420 kts 354°
2026-05-01 13:19 -5.50931 -38.93818 33978 ft 417 kts 354°
2026-05-01 13:19 -5.45150 -38.94416 32924 ft 415 kts 354°
2026-05-01 13:20 -5.42297 -38.94712 32362 ft 415 kts 354°
2026-05-01 13:20 -5.39421 -38.95009 31766 ft 415 kts 354°
2026-05-01 13:20 -5.36538 -38.95308 31090 ft 416 kts 354°
2026-05-01 13:21 -5.30708 -38.95914 29662 ft 420 kts 355°
2026-05-01 13:21 -5.27783 -38.96217 28930 ft 422 kts 355°
2026-05-01 13:21 -5.24853 -38.96520 28208 ft 424 kts 355°
2026-05-01 13:21 -5.21917 -38.96823 27490 ft 427 kts 355°
2026-05-01 13:22 -5.18957 -38.97129 26762 ft 429 kts 356°
2026-05-01 13:22 -5.15941 -38.97440 26016 ft 431 kts 356°
2026-05-01 13:22 -5.12952 -38.97747 25270 ft 433 kts 356°
2026-05-01 13:22 -5.09950 -38.98056 24525 ft 435 kts 356°
2026-05-01 13:23 -5.06932 -38.98366 23783 ft 436 kts 356°
2026-05-01 13:23 -5.03887 -38.98679 23137 ft 437 kts 356°
2026-05-01 13:23 -5.00839 -38.98993 22566 ft 440 kts 356°
2026-05-01 13:23 -4.97778 -38.99308 22024 ft 441 kts 356°
2026-05-01 13:24 -4.94687 -38.99627 21490 ft 442 kts 356°
2026-05-01 13:24 -4.91639 -38.99942 20974 ft 444 kts 356°
2026-05-01 13:24 -4.88507 -39.00265 20469 ft 445 kts 356°
2026-05-01 13:25 -4.82278 -39.00908 19399 ft 446 kts 356°
2026-05-01 13:25 -4.79171 -39.01227 18848 ft 447 kts 356°
2026-05-01 13:25 -4.76068 -39.01546 18291 ft 448 kts 356°
2026-05-01 13:25 -4.72948 -39.01868 17725 ft 448 kts 356°
2026-05-01 13:26 -4.69830 -39.02190 17161 ft 449 kts 356°
2026-05-01 13:26 -4.66695 -39.02514 16598 ft 448 kts 356°
2026-05-01 13:26 -4.63607 -39.02835 16046 ft 444 kts 356°
2026-05-01 13:26 -4.60522 -39.03153 15494 ft 440 kts 357°
2026-05-01 13:27 -4.57503 -39.03464 14953 ft 436 kts 357°
2026-05-01 13:27 -4.54505 -39.03772 14414 ft 433 kts 357°
2026-05-01 13:27 -4.48523 -39.04391 13342 ft 425 kts 356°
2026-05-01 13:28 -4.42683 -39.04983 12284 ft 416 kts 359°
2026-05-01 13:28 -4.39830 -39.04698 11734 ft 404 kts 19°
2026-05-01 13:29 -4.35408 -39.01691 10815 ft 367 kts 42°
2026-05-01 13:29 -4.31800 -38.98605 10371 ft 313 kts 42°
2026-05-01 13:30 -4.25815 -38.93554 10128 ft 263 kts 41°
2026-05-01 13:31 -4.23011 -38.91206 9843 ft 263 kts 41°
2026-05-01 13:31 -4.18816 -38.87702 8846 ft 258 kts 41°
2026-05-01 13:32 -4.15972 -38.85322 8188 ft 271 kts 41°
2026-05-01 13:33 -4.11308 -38.82310 7235 ft 274 kts
2026-05-01 13:33 -4.07543 -38.83229 7014 ft 280 kts 347°
2026-05-01 13:34 -4.03764 -38.84264 6776 ft 279 kts 348°
2026-05-01 13:34 -3.99959 -38.84961 6494 ft 272 kts 10°
2026-05-01 13:35 -3.96677 -38.83253 6370 ft 267 kts 38°
2026-05-01 13:35 -3.95167 -38.82158 6277 ft 267 kts 38°
2026-05-01 13:35 -3.92144 -38.79986 5957 ft 265 kts 37°
2026-05-01 13:36 -3.90641 -38.78910 5743 ft 264 kts 37°
2026-05-01 13:36 -3.89132 -38.77837 5465 ft 262 kts 37°
2026-05-01 13:36 -3.86179 -38.75744 4851 ft 257 kts 37°
2026-05-01 13:37 -3.84708 -38.74701 4535 ft 255 kts 37°
2026-05-01 13:37 -3.83264 -38.73685 4260 ft 250 kts 34°
2026-05-01 13:37 -3.81729 -38.72900 4180 ft 240 kts 23°
2026-05-01 13:37 -3.80151 -38.72401 3944 ft 235 kts 18°
2026-05-01 13:38 -3.77058 -38.71565 3512 ft 222 kts 17°
2026-05-01 13:38 -3.75566 -38.71161 3325 ft 221 kts 20°
2026-05-01 13:38 -3.74313 -38.70357 3175 ft 206 kts 51°
2026-05-01 13:39 -3.73786 -38.69090 2900 ft 197 kts 83°
2026-05-01 13:39 -3.73823 -38.67756 2678 ft 184 kts 98°
2026-05-01 13:39 -3.74069 -38.66557 2439 ft 168 kts 104°
2026-05-01 13:39 -3.74359 -38.65460 2219 ft 159 kts 105°
2026-05-01 13:40 -3.74651 -38.64394 2037 ft 159 kts 105°
2026-05-01 13:40 -3.74941 -38.63323 1845 ft 159 kts 104°
2026-05-01 13:40 -3.75226 -38.62259 1647 ft 158 kts 104°
2026-05-01 13:40 -3.75502 -38.61220 1432 ft 147 kts 104°
2026-05-01 13:41 -3.75764 -38.60242 1230 ft 143 kts 104°
2026-05-01 13:41 -3.76019 -38.59278 1053 ft 143 kts 105°
2026-05-01 13:41 -3.76276 -38.58309 870 ft 143 kts 106°
2026-05-01 13:41 -3.76531 -38.57362 685 ft 142 kts 107°
2026-05-01 13:42 -3.76786 -38.56404 498 ft 142 kts 108°
2026-05-01 13:42 -3.77039 -38.55459 320 ft 141 kts 108°
2026-05-01 13:42 -3.77291 -38.54509 132 ft 140 kts 108°
2026-05-01 13:42 -3.77514 -38.53693 94 ft 84 kts 104°
2026-05-01 13:43 -3.77604 -38.53350 92 ft 38 kts 104°
2026-05-01 13:43 -3.77669 -38.53106 90 ft 34 kts 105°
2026-05-01 13:43 -3.77727 -38.52885 89 ft 31 kts 104°
2026-05-01 13:43 -3.77776 -38.52700 87 ft 19 kts 104°
2026-05-01 13:44 -3.77815 -38.52611 87 ft 9 kts 166°
2026-05-01 13:44 -3.77867 -38.52652 87 ft 10 kts 243°
2026-05-01 13:44 -3.77901 -38.52714 88 ft 9 kts 242°
2026-05-01 13:44 -3.77912 -38.52777 89 ft 10 kts 281°
2026-05-01 13:45 -3.77888 -38.52864 89 ft 17 kts 285°
2026-05-01 13:45 -3.77850 -38.53004 90 ft 21 kts 285°
2026-05-01 13:45 -3.77813 -38.53142 91 ft 20 kts 285°
2026-05-01 13:45 -3.77777 -38.53274 92 ft 18 kts 285°
2026-05-01 13:46 -3.77744 -38.53398 93 ft 18 kts 284°
2026-05-01 13:46 -3.77711 -38.53519 94 ft 17 kts 285°
2026-05-01 13:46 -3.77679 -38.53635 94 ft 17 kts 285°
2026-05-01 13:46 -3.77658 -38.53740 95 ft 13 kts 258°
2026-05-01 13:47 -3.77696 -38.53825 95 ft 13 kts 238°
2026-05-01 13:47 -3.77720 -38.53906 96 ft 12 kts 279°
2026-05-01 13:47 -3.77715 -38.53934 96 ft 0 kts 280°
2026-05-01 13:47 -3.77711 -38.53962 96 ft 2 kts 265°
2026-05-01 13:48 -3.77726 -38.53975 96 ft 3 kts 201°
2026-05-01 13:48 -3.77751 -38.53983 96 ft 3 kts 200°
2026-05-01 13:48 -3.77777 -38.53994 96 ft 3 kts 204°
2026-05-01 13:48 -3.77788 -38.53999 96 ft 0 kts 204°